Location: Helsinki
(60.1699°N, 24.9384°E)
Time: 23:14:06
(UTC+02:00)

Vanguard 2 Rocket - Pass Details

Date: 28 September 2023
Orbit: 553 x 3312 km, 32.9° (Epoch: 28 November)

Event Time Altitude Azimuth Distance (km) Brightness Sun altitude
Rises 12:33:08 0° 217° (SW) 6,628 11.9 27.4°
Reaches altitude 10° 12:38:38 10° 206° (SSW) 5,919 12.0 27.5°
Maximum altitude 12:51:51 24° 162° (SSE) 5,149 12.9 27.7°
Drops below altitude 10° 13:05:14 10° 119° (ESE) 6,025 11.6 27.8°
Sets 13:10:52 0° 107° (ESE) 6,769 11.6 27.8°
